Home   Weather   Wuhan   Past weeks
Flag for China

Past Weather in Wuhan, Hubei, China — Yesterday and Last 2 Weeks

Now
90 °F

Scattered clouds.


Feels Like: 92 °F
Forecast: 92 / 78 °F
Wind: 3 mph from West

Location: Wuhan Airport

Current Time: Jun 26, 2019 at 2:30:21 pm

Latest Report: Jun 26, 2019 at 2:00 pm


Visibility: N/A

Pressure: 29.59 "Hg

Humidity: 46%

Dew Point: 66 °F

Location of WuhanLocation

Past Weather in Wuhan — Graph

°F

Wuhan Temperature Yesterday

Maximum temperature yesterday: 90 °F (at 3:00 pm)
Minimum temperature yesterday: 75 °F (at 1:00 am)
Average temperature yesterday: 82 °F

High & Low Weather Summary for the Past Weeks

 TemperatureHumidityPressure
High93 °F (Jun 20, 4:00 pm)100% (Jun 12, 6:00 am)29.77 "Hg (Jun 12, 6:00 am)
Low68 °F (Jun 13, 2:00 am)36% (Jun 11, 1:00 pm)29.47 "Hg (Jun 20, 5:00 pm)
Average78 °F80%29.68 "Hg
* Reported Jun 11 1:00 pm — Jun 26 1:00 pm, Wuhan. Weather by CustomWeather, © 2019

Note: Actual official high and low records may vary slightly from our data, if they occured in-between our weather recording intervals... More about our weather records

Advertising

Wuhan Weather History for the Previous 24 Hours

Scroll right to see more
 ConditionsComfort  
Time TempWeatherWind HumidityBarometerVisibility
1:00 pm
Wed, Jun 26
88 °FScattered clouds.1 mph55%29.62 "Hg4 mi
12:00 pm88 °FScattered clouds.1 mph55%29.62 "Hg4 mi
11:00 am88 °FScattered clouds.3 mph55%29.65 "Hg4 mi
10:00 am86 °FScattered clouds.3 mph66%29.65 "Hg3 mi
9:00 am82 °FFog.3 mph79%29.68 "Hg3 mi
8:00 am81 °FFog.3 mph84%29.68 "Hg3 mi
7:00 am79 °FFog.3 mph94%29.68 "Hg3 mi
6:00 am77 °FFog.3 mph100%29.68 "Hg2 mi
5:00 am77 °FClear.1 mph100%29.65 "Hg4 mi
4:00 am77 °FClear.3 mph100%29.65 "Hg4 mi
3:00 am77 °FClear.1 mph100%29.65 "Hg4 mi
2:00 am77 °FClear.1 mph100%29.65 "Hg4 mi
1:00 am79 °FPassing clouds.3 mph94%29.65 "Hg4 mi
12:00 am79 °FClear.3 mph89%29.68 "Hg5 mi
11:00 pm
Tue, Jun 25
79 °FClear.1 mph94%29.71 "Hg5 mi
10:00 pm81 °FClear.No wind94%29.71 "Hg10 mi
9:00 pm82 °FClear.3 mph74%29.68 "Hg10 mi
8:00 pm82 °FClear.1 mph70%29.68 "Hg10 mi
7:00 pm84 °FSunny.3 mph66%29.68 "Hg10 mi
6:00 pm86 °FPassing clouds.3 mph59%29.68 "HgN/A
5:00 pm88 °FScattered clouds.6 mph52%29.68 "HgN/A
4:00 pm88 °FSunny.1 mph49%29.68 "Hg10 mi
3:00 pm90 °FPassing clouds.3 mph49%29.68 "HgN/A
2:00 pm88 °FSunny.1 mph55%29.68 "Hg10 mi
Weather by CustomWeather, © 2019

See weather overview